Regional Weather Roundup
Issued by NWS

Home | Current Version | Previous Version | Graphics & Text | Print | Product List | Glossary On
Versions: 1 2 3 4 5 6 7 8 9 10 11 12 13 14 15 16 17 18 19 20 21 22 23 24 25 26 27 28 29 30 31 32 33 34 35 36 37 38 39 40 41 42 43 44 45 46 47 48 49 50
594
ASUS45 KSLC 231410
RWRUT

UTAH REGIONAL WEATHER ROUNDUP
NATIONAL WEATHER SERVICE SALT LAKE CITY UT
800 AM MDT WED AUG 23 2017

UTZ001>011-023>025-231500-

NORTHERN UTAH

CITY           SKY/WX    TMP DP  RH WIND       PRES   REMARKS
BRIGHAM CITY   PTSUNNY   68  52  56 CALM      30.19R
DUGWAY         MOSUNNY   63  45  51 SE2       30.17R
HILL AFB       PTSUNNY   69  47  45 E10       30.20R
LOGAN          CLOUDY    64  53  67 N5        30.19R
OGDEN          MOSUNNY   69  48  47 SE7       30.17R
SALT LAKE CITY PTSUNNY   71  56  58 SE8       30.17R
TOOELE VALLEY  MOSUNNY   64  54  68 S9        30.18R
WENDOVER       PTSUNNY   67  48  50 CALM      30.16
HEBER CITY     MOSUNNY   54  48  82 CALM      30.27R
WEST JORDAN    PTSUNNY   69  58  68 SW10      30.20S

$$

UTZ011>015-024>027-231500-

CENTRAL/NORTHEAST UTAH

CITY           SKY/WX    TMP DP  RH WIND       PRES   REMARKS
PROVO AIRPORT  MOSUNNY   63  54  72 CALM      30.22R
MOAB/CANYONLAN SUNNY     69  48  47 CALM      30.19R
DELTA          PTSUNNY   63  46  55 CALM      30.21S
PRICE          PTSUNNY   62  51  67 CALM      30.28S
RICHFIELD      SUNNY     55  54  94 CALM      30.29S
ROOSEVELT      PTSUNNY   63  46  55 CALM      30.27R
VERNAL         MOSUNNY   66  46  48 CALM      30.25S

$$

UTZ013>016-019>022-027-231500-

SOUTHERN UTAH

CITY           SKY/WX    TMP DP  RH WIND       PRES   REMARKS
BRYCE CANYON   CLOUDY    48  45  89 W8        30.42R
CEDAR CITY     SUNNY     56  47  71 CALM      30.25R
MILFORD        MOSUNNY   59  46  62 S6        30.21R
ST GEORGE      MOSUNNY   72  47  40 CALM      30.09
HANKSVILLE     SUNNY     64  45  48 CALM      30.21S
KANAB          PTSUNNY   64  48  55 NE3       30.25R
BLANDING       SUNNY     67  49  52 CALM      30.37S

$$

REGIONAL REPORTS     COLORADO/ARIZONA

CITY           SKY/WX    TMP DP  RH WIND       PRES   REMARKS
CRAIG, CO      LGT RAIN  54  47  77 CALM      30.32R
GRAND JUNCTION CLOUDY    69  49  48 SE9       30.23S
RIFLE, CO      CLOUDY    62  46  55 CALM      30.30S
MONTROSE, CO   CLOUDY    60  47  61 S5        30.33R
CORTEZ, CO     SUNNY     58  50  75 MISG      30.31S
COLORADO CITY    N/A     57  52  82 CALM      30.24R
PAGE, AZ       SUNNY     73  48  41 CALM      30.16R
GRAND CANYON   SUNNY     56  47  71 E6        30.34R
KINGMAN, AZ    SUNNY     72  48  42 W3        30.08S
FLAGSTAFF, AZ  MOSUNNY   52  46  80 CALM      30.37R

$$

REGIONAL REPORTS    NEVADA/IDAHO/WYOMING

CITY           SKY/WX    TMP DP  RH WIND       PRES   REMARKS
LAS VEGAS, NV  PTCLDY    84  48  28 SW3       29.98R
ELY, NY        MOSUNNY   48  44  86 S7        30.30S
ELKO, NV       MOSUNNY   56  48  74 E7        30.23R
POCATELLO, ID  CLOUDY    63  50  62 NW6       30.16S
BURLEY, ID     CLOUDY    65  54  67 CALM      30.13R
FORT BRIDGER,  DRIZZLE   63  46  53 W14       30.38S
EVANSTON, WY   CLOUDY    63  43  48 NE6       30.36R
ROCK SPRINGS,  CLOUDY    64  39  39 SW10      30.31
KEMMERER, WY   HAZE      57  39  51 SW5       30.38R VSB 1/4

$$




USA.gov is the U.S. government's official web portal to all federal, state and local government web resources and services.